Index of /20260430/WXO-DD/model_rdps/10km/06/042
Name Last modified Size Description
Parent Directory -
20260430T06Z_MSC_RDPS_AbsoluteVorticity_IsbL-0250_RLatLon0.09_PT042H.grib2 2026-04-30 08:51 598K
20260430T06Z_MSC_RDPS_AbsoluteVorticity_IsbL-0500_RLatLon0.09_PT042H.grib2 2026-04-30 08:51 562K
20260430T06Z_MSC_RDPS_AbsoluteVorticity_IsbL-0700_RLatLon0.09_PT042H.grib2 2026-04-30 08:51 621K
20260430T06Z_MSC_RDPS_AbsoluteVorticity_IsbL-0850_RLatLon0.09_PT042H.grib2 2026-04-30 08:51 767K
20260430T06Z_MSC_RDPS_AirTemp_AGL-120m_RLatLon0.09_PT042H.grib2 2026-04-30 08:51 387K
20260430T06Z_MSC_RDPS_AirTemp_AGL-2m_RLatLon0.09_PT042H.grib2 2026-04-30 08:51 619K
20260430T06Z_MSC_RDPS_AirTemp_AGL-40m_RLatLon0.09_PT042H.grib2 2026-04-30 08:51 396K
20260430T06Z_MSC_RDPS_AirTemp_AGL-80m_RLatLon0.09_PT042H.grib2 2026-04-30 08:51 390K
20260430T06Z_MSC_RDPS_AirTemp_IsbL-0001_RLatLon0.09_PT042H.grib2 2026-04-30 08:51 257K
20260430T06Z_MSC_RDPS_AirTemp_IsbL-0005_RLatLon0.09_PT042H.grib2 2026-04-30 08:51 284K
20260430T06Z_MSC_RDPS_AirTemp_IsbL-0010_RLatLon0.09_PT042H.grib2 2026-04-30 08:51 294K
20260430T06Z_MSC_RDPS_AirTemp_IsbL-0020_RLatLon0.09_PT042H.grib2 2026-04-30 08:51 406K
20260430T06Z_MSC_RDPS_AirTemp_IsbL-0030_RLatLon0.09_PT042H.grib2 2026-04-30 08:51 333K
20260430T06Z_MSC_RDPS_AirTemp_IsbL-0050_RLatLon0.09_PT042H.grib2 2026-04-30 08:51 310K
20260430T06Z_MSC_RDPS_AirTemp_IsbL-0100_RLatLon0.09_PT042H.grib2 2026-04-30 08:51 386K
20260430T06Z_MSC_RDPS_AirTemp_IsbL-0150_RLatLon0.09_PT042H.grib2 2026-04-30 08:51 418K
20260430T06Z_MSC_RDPS_AirTemp_IsbL-0175_RLatLon0.09_PT042H.grib2 2026-04-30 08:51 411K
20260430T06Z_MSC_RDPS_AirTemp_IsbL-0200_RLatLon0.09_PT042H.grib2 2026-04-30 08:51 414K
20260430T06Z_MSC_RDPS_AirTemp_IsbL-0225_RLatLon0.09_PT042H.grib2 2026-04-30 08:51 411K
20260430T06Z_MSC_RDPS_AirTemp_IsbL-0250_RLatLon0.09_PT042H.grib2 2026-04-30 08:51 415K
20260430T06Z_MSC_RDPS_AirTemp_IsbL-0275_RLatLon0.09_PT042H.grib2 2026-04-30 08:51 395K
20260430T06Z_MSC_RDPS_AirTemp_IsbL-0300_RLatLon0.09_PT042H.grib2 2026-04-30 08:51 403K
20260430T06Z_MSC_RDPS_AirTemp_IsbL-0350_RLatLon0.09_PT042H.grib2 2026-04-30 08:51 418K
20260430T06Z_MSC_RDPS_AirTemp_IsbL-0400_RLatLon0.09_PT042H.grib2 2026-04-30 08:51 420K
20260430T06Z_MSC_RDPS_AirTemp_IsbL-0450_RLatLon0.09_PT042H.grib2 2026-04-30 08:51 428K
20260430T06Z_MSC_RDPS_AirTemp_IsbL-0500_RLatLon0.09_PT042H.grib2 2026-04-30 08:51 406K
20260430T06Z_MSC_RDPS_AirTemp_IsbL-0550_RLatLon0.09_PT042H.grib2 2026-04-30 08:51 426K
20260430T06Z_MSC_RDPS_AirTemp_IsbL-0600_RLatLon0.09_PT042H.grib2 2026-04-30 08:51 445K
20260430T06Z_MSC_RDPS_AirTemp_IsbL-0650_RLatLon0.09_PT042H.grib2 2026-04-30 08:51 460K
20260430T06Z_MSC_RDPS_AirTemp_IsbL-0700_RLatLon0.09_PT042H.grib2 2026-04-30 08:51 379K
20260430T06Z_MSC_RDPS_AirTemp_IsbL-0750_RLatLon0.09_PT042H.grib2 2026-04-30 08:51 409K
20260430T06Z_MSC_RDPS_AirTemp_IsbL-0800_RLatLon0.09_PT042H.grib2 2026-04-30 08:51 446K
20260430T06Z_MSC_RDPS_AirTemp_IsbL-0850_RLatLon0.09_PT042H.grib2 2026-04-30 08:51 490K
20260430T06Z_MSC_RDPS_AirTemp_IsbL-0875_RLatLon0.09_PT042H.grib2 2026-04-30 08:51 511K
20260430T06Z_MSC_RDPS_AirTemp_IsbL-0900_RLatLon0.09_PT042H.grib2 2026-04-30 08:51 518K
20260430T06Z_MSC_RDPS_AirTemp_IsbL-0925_RLatLon0.09_PT042H.grib2 2026-04-30 08:51 517K
20260430T06Z_MSC_RDPS_AirTemp_IsbL-0950_RLatLon0.09_PT042H.grib2 2026-04-30 08:51 517K
20260430T06Z_MSC_RDPS_AirTemp_IsbL-0970_RLatLon0.09_PT042H.grib2 2026-04-30 08:51 513K
20260430T06Z_MSC_RDPS_AirTemp_IsbL-0985_RLatLon0.09_PT042H.grib2 2026-04-30 08:51 507K
20260430T06Z_MSC_RDPS_AirTemp_IsbL-1000_RLatLon0.09_PT042H.grib2 2026-04-30 08:51 493K
20260430T06Z_MSC_RDPS_AirTemp_IsbL-1015_RLatLon0.09_PT042H.grib2 2026-04-30 08:51 499K
20260430T06Z_MSC_RDPS_Albedo_Sfc_RLatLon0.09_PT042H.grib2 2026-04-30 08:51 156K
20260430T06Z_MSC_RDPS_CAPE_Sfc_RLatLon0.09_PT042H.grib2 2026-04-30 08:51 1.7M
20260430T06Z_MSC_RDPS_CIN_Sfc_RLatLon0.09_PT042H.grib2 2026-04-30 08:51 1.3M
20260430T06Z_MSC_RDPS_CloudWater_EAtm_RLatLon0.09_PT042H.grib2 2026-04-30 08:51 223K
20260430T06Z_MSC_RDPS_ConvectivePrecip-Accum_Sfc_RLatLon0.09_PT042H.grib2 2026-04-30 08:51 1.0M
20260430T06Z_MSC_RDPS_DewPointDepression_AGL-2m_RLatLon0.09_PT042H.grib2 2026-04-30 08:51 408K
20260430T06Z_MSC_RDPS_DewPointDepression_IsbL-0001_RLatLon0.09_PT042H.grib2 2026-04-30 08:51 193
20260430T06Z_MSC_RDPS_DewPointDepression_IsbL-0005_RLatLon0.09_PT042H.grib2 2026-04-30 08:51 193
20260430T06Z_MSC_RDPS_DewPointDepression_IsbL-0010_RLatLon0.09_PT042H.grib2 2026-04-30 08:51 193
20260430T06Z_MSC_RDPS_DewPointDepression_IsbL-0020_RLatLon0.09_PT042H.grib2 2026-04-30 08:51 193
20260430T06Z_MSC_RDPS_DewPointDepression_IsbL-0030_RLatLon0.09_PT042H.grib2 2026-04-30 08:51 193
20260430T06Z_MSC_RDPS_DewPointDepression_IsbL-0050_RLatLon0.09_PT042H.grib2 2026-04-30 08:51 78K
20260430T06Z_MSC_RDPS_DewPointDepression_IsbL-0100_RLatLon0.09_PT042H.grib2 2026-04-30 08:51 124K
20260430T06Z_MSC_RDPS_DewPointDepression_IsbL-0150_RLatLon0.09_PT042H.grib2 2026-04-30 08:51 152K
20260430T06Z_MSC_RDPS_DewPointDepression_IsbL-0175_RLatLon0.09_PT042H.grib2 2026-04-30 08:51 187K
20260430T06Z_MSC_RDPS_DewPointDepression_IsbL-0200_RLatLon0.09_PT042H.grib2 2026-04-30 08:51 222K
20260430T06Z_MSC_RDPS_DewPointDepression_IsbL-0225_RLatLon0.09_PT042H.grib2 2026-04-30 08:51 260K
20260430T06Z_MSC_RDPS_DewPointDepression_IsbL-0250_RLatLon0.09_PT042H.grib2 2026-04-30 08:51 300K
20260430T06Z_MSC_RDPS_DewPointDepression_IsbL-0275_RLatLon0.09_PT042H.grib2 2026-04-30 08:51 307K
20260430T06Z_MSC_RDPS_DewPointDepression_IsbL-0300_RLatLon0.09_PT042H.grib2 2026-04-30 08:51 322K
20260430T06Z_MSC_RDPS_DewPointDepression_IsbL-0350_RLatLon0.09_PT042H.grib2 2026-04-30 08:51 327K
20260430T06Z_MSC_RDPS_DewPointDepression_IsbL-0400_RLatLon0.09_PT042H.grib2 2026-04-30 08:51 341K
20260430T06Z_MSC_RDPS_DewPointDepression_IsbL-0450_RLatLon0.09_PT042H.grib2 2026-04-30 08:51 351K
20260430T06Z_MSC_RDPS_DewPointDepression_IsbL-0500_RLatLon0.09_PT042H.grib2 2026-04-30 08:51 359K
20260430T06Z_MSC_RDPS_DewPointDepression_IsbL-0550_RLatLon0.09_PT042H.grib2 2026-04-30 08:51 368K
20260430T06Z_MSC_RDPS_DewPointDepression_IsbL-0600_RLatLon0.09_PT042H.grib2 2026-04-30 08:51 384K
20260430T06Z_MSC_RDPS_DewPointDepression_IsbL-0650_RLatLon0.09_PT042H.grib2 2026-04-30 08:51 388K
20260430T06Z_MSC_RDPS_DewPointDepression_IsbL-0700_RLatLon0.09_PT042H.grib2 2026-04-30 08:51 396K
20260430T06Z_MSC_RDPS_DewPointDepression_IsbL-0750_RLatLon0.09_PT042H.grib2 2026-04-30 08:51 416K
20260430T06Z_MSC_RDPS_DewPointDepression_IsbL-0800_RLatLon0.09_PT042H.grib2 2026-04-30 08:51 447K
20260430T06Z_MSC_RDPS_DewPointDepression_IsbL-0850_RLatLon0.09_PT042H.grib2 2026-04-30 08:51 472K
20260430T06Z_MSC_RDPS_DewPointDepression_IsbL-0875_RLatLon0.09_PT042H.grib2 2026-04-30 08:51 474K
20260430T06Z_MSC_RDPS_DewPointDepression_IsbL-0900_RLatLon0.09_PT042H.grib2 2026-04-30 08:51 464K
20260430T06Z_MSC_RDPS_DewPointDepression_IsbL-0925_RLatLon0.09_PT042H.grib2 2026-04-30 08:51 449K
20260430T06Z_MSC_RDPS_DewPointDepression_IsbL-0950_RLatLon0.09_PT042H.grib2 2026-04-30 08:51 441K
20260430T06Z_MSC_RDPS_DewPointDepression_IsbL-0970_RLatLon0.09_PT042H.grib2 2026-04-30 08:51 432K
20260430T06Z_MSC_RDPS_DewPointDepression_IsbL-0985_RLatLon0.09_PT042H.grib2 2026-04-30 08:51 427K
20260430T06Z_MSC_RDPS_DewPointDepression_IsbL-1000_RLatLon0.09_PT042H.grib2 2026-04-30 08:51 421K
20260430T06Z_MSC_RDPS_DewPointDepression_IsbL-1015_RLatLon0.09_PT042H.grib2 2026-04-30 08:51 409K
20260430T06Z_MSC_RDPS_DewPoint_AGL-2m_RLatLon0.09_PT042H.grib2 2026-04-30 08:51 390K
20260430T06Z_MSC_RDPS_DownwardLongwaveRadiationFlux-Accum_Sfc_RLatLon0.09_PT042H.grib2 2026-04-30 08:51 387K
20260430T06Z_MSC_RDPS_DownwardShortwaveRadiationFlux-Accum_NTAtm_RLatLon0.09_PT042H.grib2 2026-04-30 08:51 144K
20260430T06Z_MSC_RDPS_DownwardShortwaveRadiationFlux-Accum_Sfc_RLatLon0.09_PT042H.grib2 2026-04-30 08:51 543K
20260430T06Z_MSC_RDPS_FreezingRain-Accum12h_Sfc_RLatLon0.09_PT042H.grib2 2026-04-30 08:51 63K
20260430T06Z_MSC_RDPS_FreezingRain-Accum1h_Sfc_RLatLon0.09_PT042H.grib2 2026-04-30 08:51 23K
20260430T06Z_MSC_RDPS_FreezingRain-Accum24h_Sfc_RLatLon0.09_PT042H.grib2 2026-04-30 08:51 108K
20260430T06Z_MSC_RDPS_FreezingRain-Accum3h_Sfc_RLatLon0.09_PT042H.grib2 2026-04-30 08:51 23K
20260430T06Z_MSC_RDPS_FreezingRain-Accum6h_Sfc_RLatLon0.09_PT042H.grib2 2026-04-30 08:51 30K
20260430T06Z_MSC_RDPS_FreezingRain-Accum_Sfc_RLatLon0.09_PT042H.grib2 2026-04-30 08:51 152K
20260430T06Z_MSC_RDPS_GeopotentialHeight_IsbL-0001_RLatLon0.09_PT042H.grib2 2026-04-30 08:51 309K
20260430T06Z_MSC_RDPS_GeopotentialHeight_IsbL-0005_RLatLon0.09_PT042H.grib2 2026-04-30 08:51 332K
20260430T06Z_MSC_RDPS_GeopotentialHeight_IsbL-0010_RLatLon0.09_PT042H.grib2 2026-04-30 08:51 300K
20260430T06Z_MSC_RDPS_GeopotentialHeight_IsbL-0020_RLatLon0.09_PT042H.grib2 2026-04-30 08:51 299K
20260430T06Z_MSC_RDPS_GeopotentialHeight_IsbL-0030_RLatLon0.09_PT042H.grib2 2026-04-30 08:51 302K
20260430T06Z_MSC_RDPS_GeopotentialHeight_IsbL-0050_RLatLon0.09_PT042H.grib2 2026-04-30 08:51 303K
20260430T06Z_MSC_RDPS_GeopotentialHeight_IsbL-0100_RLatLon0.09_PT042H.grib2 2026-04-30 08:51 282K
20260430T06Z_MSC_RDPS_GeopotentialHeight_IsbL-0150_RLatLon0.09_PT042H.grib2 2026-04-30 08:51 226K
20260430T06Z_MSC_RDPS_GeopotentialHeight_IsbL-0175_RLatLon0.09_PT042H.grib2 2026-04-30 08:51 229K
20260430T06Z_MSC_RDPS_GeopotentialHeight_IsbL-0200_RLatLon0.09_PT042H.grib2 2026-04-30 08:51 262K
20260430T06Z_MSC_RDPS_GeopotentialHeight_IsbL-0225_RLatLon0.09_PT042H.grib2 2026-04-30 08:51 264K
20260430T06Z_MSC_RDPS_GeopotentialHeight_IsbL-0250_RLatLon0.09_PT042H.grib2 2026-04-30 08:51 265K
20260430T06Z_MSC_RDPS_GeopotentialHeight_IsbL-0275_RLatLon0.09_PT042H.grib2 2026-04-30 08:51 264K
20260430T06Z_MSC_RDPS_GeopotentialHeight_IsbL-0300_RLatLon0.09_PT042H.grib2 2026-04-30 08:51 263K
20260430T06Z_MSC_RDPS_GeopotentialHeight_IsbL-0350_RLatLon0.09_PT042H.grib2 2026-04-30 08:51 229K
20260430T06Z_MSC_RDPS_GeopotentialHeight_IsbL-0400_RLatLon0.09_PT042H.grib2 2026-04-30 08:51 226K
20260430T06Z_MSC_RDPS_GeopotentialHeight_IsbL-0450_RLatLon0.09_PT042H.grib2 2026-04-30 08:51 294K
20260430T06Z_MSC_RDPS_GeopotentialHeight_IsbL-0500_RLatLon0.09_PT042H.grib2 2026-04-30 08:51 289K
20260430T06Z_MSC_RDPS_GeopotentialHeight_IsbL-0550_RLatLon0.09_PT042H.grib2 2026-04-30 08:51 286K
20260430T06Z_MSC_RDPS_GeopotentialHeight_IsbL-0600_RLatLon0.09_PT042H.grib2 2026-04-30 08:51 284K
20260430T06Z_MSC_RDPS_GeopotentialHeight_IsbL-0650_RLatLon0.09_PT042H.grib2 2026-04-30 08:51 254K
20260430T06Z_MSC_RDPS_GeopotentialHeight_IsbL-0700_RLatLon0.09_PT042H.grib2 2026-04-30 08:51 253K
20260430T06Z_MSC_RDPS_GeopotentialHeight_IsbL-0750_RLatLon0.09_PT042H.grib2 2026-04-30 08:51 336K
20260430T06Z_MSC_RDPS_GeopotentialHeight_IsbL-0800_RLatLon0.09_PT042H.grib2 2026-04-30 08:51 343K
20260430T06Z_MSC_RDPS_GeopotentialHeight_IsbL-0850_RLatLon0.09_PT042H.grib2 2026-04-30 08:51 350K
20260430T06Z_MSC_RDPS_GeopotentialHeight_IsbL-0875_RLatLon0.09_PT042H.grib2 2026-04-30 08:51 351K
20260430T06Z_MSC_RDPS_GeopotentialHeight_IsbL-0900_RLatLon0.09_PT042H.grib2 2026-04-30 08:51 390K
20260430T06Z_MSC_RDPS_GeopotentialHeight_IsbL-0925_RLatLon0.09_PT042H.grib2 2026-04-30 08:51 393K
20260430T06Z_MSC_RDPS_GeopotentialHeight_IsbL-0950_RLatLon0.09_PT042H.grib2 2026-04-30 08:51 396K
20260430T06Z_MSC_RDPS_GeopotentialHeight_IsbL-0970_RLatLon0.09_PT042H.grib2 2026-04-30 08:51 401K
20260430T06Z_MSC_RDPS_GeopotentialHeight_IsbL-0985_RLatLon0.09_PT042H.grib2 2026-04-30 08:51 410K
20260430T06Z_MSC_RDPS_GeopotentialHeight_IsbL-1000_RLatLon0.09_PT042H.grib2 2026-04-30 08:51 422K
20260430T06Z_MSC_RDPS_GeopotentialHeight_IsbL-1015_RLatLon0.09_PT042H.grib2 2026-04-30 08:51 438K
20260430T06Z_MSC_RDPS_Humidex_Sfc_RLatLon0.09_PT042H.grib2 2026-04-30 08:51 2.4M
20260430T06Z_MSC_RDPS_IcePellets-Accum12h_Sfc_RLatLon0.09_PT042H.grib2 2026-04-30 08:51 18K
20260430T06Z_MSC_RDPS_IcePellets-Accum1h_Sfc_RLatLon0.09_PT042H.grib2 2026-04-30 08:51 6.5K
20260430T06Z_MSC_RDPS_IcePellets-Accum24h_Sfc_RLatLon0.09_PT042H.grib2 2026-04-30 08:51 21K
20260430T06Z_MSC_RDPS_IcePellets-Accum3h_Sfc_RLatLon0.09_PT042H.grib2 2026-04-30 08:51 7.8K
20260430T06Z_MSC_RDPS_IcePellets-Accum6h_Sfc_RLatLon0.09_PT042H.grib2 2026-04-30 08:51 10K
20260430T06Z_MSC_RDPS_IcePellets-Accum_Sfc_RLatLon0.09_PT042H.grib2 2026-04-30 08:51 24K
20260430T06Z_MSC_RDPS_KIndex_Sfc_RLatLon0.09_PT042H.grib2 2026-04-30 08:51 2.5M
20260430T06Z_MSC_RDPS_LatentHeatNetFlux_Sfc_RLatLon0.09_PT042H.grib2 2026-04-30 08:51 350K
20260430T06Z_MSC_RDPS_LiftedIndex-MU-VT_IsbL-0500_RLatLon0.09_PT042H.grib2 2026-04-30 08:51 2.4M
20260430T06Z_MSC_RDPS_NetLongwaveRadiationFlux-Accum_Sfc_RLatLon0.09_PT042H.grib2 2026-04-30 08:51 524K
20260430T06Z_MSC_RDPS_NetShortwaveRadiationFlux-Accum_Sfc_RLatLon0.09_PT042H.grib2 2026-04-30 08:51 545K
20260430T06Z_MSC_RDPS_PlanetaryBoundaryLayerHeight_Sfc_RLatLon0.09_PT042H.grib2 2026-04-30 08:51 1.0M
20260430T06Z_MSC_RDPS_Precip-Accum12h_Sfc_RLatLon0.09_PT042H.grib2 2026-04-30 08:51 1.5M
20260430T06Z_MSC_RDPS_Precip-Accum1h_Sfc_RLatLon0.09_PT042H.grib2 2026-04-30 08:51 1.2M
20260430T06Z_MSC_RDPS_Precip-Accum24h_Sfc_RLatLon0.09_PT042H.grib2 2026-04-30 08:51 1.8M
20260430T06Z_MSC_RDPS_Precip-Accum3h_Sfc_RLatLon0.09_PT042H.grib2 2026-04-30 08:51 1.3M
20260430T06Z_MSC_RDPS_Precip-Accum6h_Sfc_RLatLon0.09_PT042H.grib2 2026-04-30 08:51 1.3M
20260430T06Z_MSC_RDPS_Precip-Accum_Sfc_RLatLon0.09_PT042H.grib2 2026-04-30 08:51 1.9M
20260430T06Z_MSC_RDPS_PrecipRate_Sfc_RLatLon0.09_PT042H.grib2 2026-04-30 08:51 174K
20260430T06Z_MSC_RDPS_PrecipType-Instant_Sfc_RLatLon0.09_PT042H.grib2 2026-04-30 08:51 572K
20260430T06Z_MSC_RDPS_Pressure-Trend3h_Sfc_RLatLon0.09_PT042H.grib2 2026-04-30 08:51 1.2M
20260430T06Z_MSC_RDPS_Pressure_MSL_RLatLon0.09_PT042H.grib2 2026-04-30 08:51 324K
20260430T06Z_MSC_RDPS_Pressure_PVU-1.5_RLatLon0.09_PT042H.grib2 2026-04-30 08:51 2.3M
20260430T06Z_MSC_RDPS_Pressure_PVU-1_RLatLon0.09_PT042H.grib2 2026-04-30 08:51 2.4M
20260430T06Z_MSC_RDPS_Pressure_PVU-2_RLatLon0.09_PT042H.grib2 2026-04-30 08:51 2.4M
20260430T06Z_MSC_RDPS_Pressure_Sfc_RLatLon0.09_PT042H.grib2 2026-04-30 08:51 497K
20260430T06Z_MSC_RDPS_RadiativeTemp_Sfc_RLatLon0.09_PT042H.grib2 2026-04-30 08:51 313K
20260430T06Z_MSC_RDPS_Rain-Accum12h_Sfc_RLatLon0.09_PT042H.grib2 2026-04-30 08:51 1.0M
20260430T06Z_MSC_RDPS_Rain-Accum1h_Sfc_RLatLon0.09_PT042H.grib2 2026-04-30 08:51 591K
20260430T06Z_MSC_RDPS_Rain-Accum24h_Sfc_RLatLon0.09_PT042H.grib2 2026-04-30 08:51 1.3M
20260430T06Z_MSC_RDPS_Rain-Accum3h_Sfc_RLatLon0.09_PT042H.grib2 2026-04-30 08:51 617K
20260430T06Z_MSC_RDPS_Rain-Accum6h_Sfc_RLatLon0.09_PT042H.grib2 2026-04-30 08:51 874K
20260430T06Z_MSC_RDPS_Rain-Accum_Sfc_RLatLon0.09_PT042H.grib2 2026-04-30 08:51 1.5M
20260430T06Z_MSC_RDPS_RelativeHumidity_AGL-2m_RLatLon0.09_PT042H.grib2 2026-04-30 08:51 1.0M
20260430T06Z_MSC_RDPS_RelativeHumidity_IsbL-0010_RLatLon0.09_PT042H.grib2 2026-04-30 08:51 622K
20260430T06Z_MSC_RDPS_RelativeHumidity_IsbL-0020_RLatLon0.09_PT042H.grib2 2026-04-30 08:51 670K
20260430T06Z_MSC_RDPS_RelativeHumidity_IsbL-0030_RLatLon0.09_PT042H.grib2 2026-04-30 08:51 604K
20260430T06Z_MSC_RDPS_RelativeHumidity_IsbL-0050_RLatLon0.09_PT042H.grib2 2026-04-30 08:51 363K
20260430T06Z_MSC_RDPS_RelativeHumidity_IsbL-0100_RLatLon0.09_PT042H.grib2 2026-04-30 08:51 273K
20260430T06Z_MSC_RDPS_RelativeHumidity_IsbL-0150_RLatLon0.09_PT042H.grib2 2026-04-30 08:51 405K
20260430T06Z_MSC_RDPS_RelativeHumidity_IsbL-0175_RLatLon0.09_PT042H.grib2 2026-04-30 08:51 473K
20260430T06Z_MSC_RDPS_RelativeHumidity_IsbL-0200_RLatLon0.09_PT042H.grib2 2026-04-30 08:51 557K
20260430T06Z_MSC_RDPS_RelativeHumidity_IsbL-0225_RLatLon0.09_PT042H.grib2 2026-04-30 08:51 626K
20260430T06Z_MSC_RDPS_RelativeHumidity_IsbL-0250_RLatLon0.09_PT042H.grib2 2026-04-30 08:51 691K
20260430T06Z_MSC_RDPS_RelativeHumidity_IsbL-0275_RLatLon0.09_PT042H.grib2 2026-04-30 08:51 711K
20260430T06Z_MSC_RDPS_RelativeHumidity_IsbL-0300_RLatLon0.09_PT042H.grib2 2026-04-30 08:51 748K
20260430T06Z_MSC_RDPS_RelativeHumidity_IsbL-0350_RLatLon0.09_PT042H.grib2 2026-04-30 08:51 768K
20260430T06Z_MSC_RDPS_RelativeHumidity_IsbL-0400_RLatLon0.09_PT042H.grib2 2026-04-30 08:51 788K
20260430T06Z_MSC_RDPS_RelativeHumidity_IsbL-0450_RLatLon0.09_PT042H.grib2 2026-04-30 08:51 801K
20260430T06Z_MSC_RDPS_RelativeHumidity_IsbL-0500_RLatLon0.09_PT042H.grib2 2026-04-30 08:51 809K
20260430T06Z_MSC_RDPS_RelativeHumidity_IsbL-0550_RLatLon0.09_PT042H.grib2 2026-04-30 08:51 838K
20260430T06Z_MSC_RDPS_RelativeHumidity_IsbL-0600_RLatLon0.09_PT042H.grib2 2026-04-30 08:51 852K
20260430T06Z_MSC_RDPS_RelativeHumidity_IsbL-0650_RLatLon0.09_PT042H.grib2 2026-04-30 08:51 873K
20260430T06Z_MSC_RDPS_RelativeHumidity_IsbL-0700_RLatLon0.09_PT042H.grib2 2026-04-30 08:51 891K
20260430T06Z_MSC_RDPS_RelativeHumidity_IsbL-0750_RLatLon0.09_PT042H.grib2 2026-04-30 08:51 932K
20260430T06Z_MSC_RDPS_RelativeHumidity_IsbL-0800_RLatLon0.09_PT042H.grib2 2026-04-30 08:51 1.0M
20260430T06Z_MSC_RDPS_RelativeHumidity_IsbL-0850_RLatLon0.09_PT042H.grib2 2026-04-30 08:51 1.0M
20260430T06Z_MSC_RDPS_RelativeHumidity_IsbL-0875_RLatLon0.09_PT042H.grib2 2026-04-30 08:51 1.1M
20260430T06Z_MSC_RDPS_RelativeHumidity_IsbL-0900_RLatLon0.09_PT042H.grib2 2026-04-30 08:51 1.1M
20260430T06Z_MSC_RDPS_RelativeHumidity_IsbL-0925_RLatLon0.09_PT042H.grib2 2026-04-30 08:51 1.1M
20260430T06Z_MSC_RDPS_RelativeHumidity_IsbL-0950_RLatLon0.09_PT042H.grib2 2026-04-30 08:51 1.1M
20260430T06Z_MSC_RDPS_RelativeHumidity_IsbL-0970_RLatLon0.09_PT042H.grib2 2026-04-30 08:51 1.0M
20260430T06Z_MSC_RDPS_RelativeHumidity_IsbL-0985_RLatLon0.09_PT042H.grib2 2026-04-30 08:51 1.0M
20260430T06Z_MSC_RDPS_RelativeHumidity_IsbL-1000_RLatLon0.09_PT042H.grib2 2026-04-30 08:51 1.0M
20260430T06Z_MSC_RDPS_RelativeHumidity_IsbL-1015_RLatLon0.09_PT042H.grib2 2026-04-30 08:51 1.0M
20260430T06Z_MSC_RDPS_Runoff-Accum_Sfc_RLatLon0.09_PT042H.grib2 2026-04-30 08:51 50K
20260430T06Z_MSC_RDPS_SWEATIndex_Sfc_RLatLon0.09_PT042H.grib2 2026-04-30 08:51 2.4M
20260430T06Z_MSC_RDPS_SeeingIndex_EAtm_RLatLon0.09_PT042H.grib2 2026-04-30 08:51 1.0M
20260430T06Z_MSC_RDPS_SensibleHeatNetFlux_Sfc_RLatLon0.09_PT042H.grib2 2026-04-30 08:51 310K
20260430T06Z_MSC_RDPS_ShowalterIndex_IsbL-0500_RLatLon0.09_PT042H.grib2 2026-04-30 08:51 2.6M
20260430T06Z_MSC_RDPS_SkyTransparencyIndex_EAtm_RLatLon0.09_PT042H.grib2 2026-04-30 08:51 715K
20260430T06Z_MSC_RDPS_Snow-Accum12h_Sfc_RLatLon0.09_PT042H.grib2 2026-04-30 08:51 550K
20260430T06Z_MSC_RDPS_Snow-Accum1h_Sfc_RLatLon0.09_PT042H.grib2 2026-04-30 08:51 452K
20260430T06Z_MSC_RDPS_Snow-Accum24h_Sfc_RLatLon0.09_PT042H.grib2 2026-04-30 08:51 631K
20260430T06Z_MSC_RDPS_Snow-Accum3h_Sfc_RLatLon0.09_PT042H.grib2 2026-04-30 08:51 378K
20260430T06Z_MSC_RDPS_Snow-Accum6h_Sfc_RLatLon0.09_PT042H.grib2 2026-04-30 08:51 507K
20260430T06Z_MSC_RDPS_Snow-Accum_Sfc_RLatLon0.09_PT042H.grib2 2026-04-30 08:51 692K
20260430T06Z_MSC_RDPS_SnowDensity_Sfc_RLatLon0.09_PT042H.grib2 2026-04-30 08:51 176K
20260430T06Z_MSC_RDPS_SnowDepth_Sfc_RLatLon0.09_PT042H.grib2 2026-04-30 08:51 668K
20260430T06Z_MSC_RDPS_SoilTemp_DBS-0to10cm_RLatLon0.09_PT042H.grib2 2026-04-30 08:51 239K
20260430T06Z_MSC_RDPS_SoilTemp_Sfc_RLatLon0.09_PT042H.grib2 2026-04-30 08:51 271K
20260430T06Z_MSC_RDPS_SoilVolumetricIceContent_Sfc_RLatLon0.09_PT042H.grib2 2026-04-30 08:51 161K
20260430T06Z_MSC_RDPS_SoilVolumetricWaterContent_DBS-0to10cm_RLatLon0.09_PT042H.grib2 2026-04-30 08:51 270K
20260430T06Z_MSC_RDPS_SoilVolumetricWaterContent_DBS-0to1cm_RLatLon0.09_PT042H.grib2 2026-04-30 08:51 338K
20260430T06Z_MSC_RDPS_SpecificHumidity_AGL-120m_RLatLon0.09_PT042H.grib2 2026-04-30 08:51 486K
20260430T06Z_MSC_RDPS_SpecificHumidity_AGL-2m_RLatLon0.09_PT042H.grib2 2026-04-30 08:51 654K
20260430T06Z_MSC_RDPS_SpecificHumidity_AGL-40m_RLatLon0.09_PT042H.grib2 2026-04-30 08:51 491K
20260430T06Z_MSC_RDPS_SpecificHumidity_AGL-80m_RLatLon0.09_PT042H.grib2 2026-04-30 08:51 487K
20260430T06Z_MSC_RDPS_SpecificHumidity_IsbL-0001_RLatLon0.09_PT042H.grib2 2026-04-30 08:51 362K
20260430T06Z_MSC_RDPS_SpecificHumidity_IsbL-0005_RLatLon0.09_PT042H.grib2 2026-04-30 08:51 361K
20260430T06Z_MSC_RDPS_SpecificHumidity_IsbL-0010_RLatLon0.09_PT042H.grib2 2026-04-30 08:51 394K
20260430T06Z_MSC_RDPS_SpecificHumidity_IsbL-0020_RLatLon0.09_PT042H.grib2 2026-04-30 08:51 382K
20260430T06Z_MSC_RDPS_SpecificHumidity_IsbL-0030_RLatLon0.09_PT042H.grib2 2026-04-30 08:51 481K
20260430T06Z_MSC_RDPS_SpecificHumidity_IsbL-0050_RLatLon0.09_PT042H.grib2 2026-04-30 08:51 483K
20260430T06Z_MSC_RDPS_SpecificHumidity_IsbL-0100_RLatLon0.09_PT042H.grib2 2026-04-30 08:51 421K
20260430T06Z_MSC_RDPS_SpecificHumidity_IsbL-0150_RLatLon0.09_PT042H.grib2 2026-04-30 08:51 472K
20260430T06Z_MSC_RDPS_SpecificHumidity_IsbL-0175_RLatLon0.09_PT042H.grib2 2026-04-30 08:51 430K
20260430T06Z_MSC_RDPS_SpecificHumidity_IsbL-0200_RLatLon0.09_PT042H.grib2 2026-04-30 08:51 450K
20260430T06Z_MSC_RDPS_SpecificHumidity_IsbL-0225_RLatLon0.09_PT042H.grib2 2026-04-30 08:51 457K
20260430T06Z_MSC_RDPS_SpecificHumidity_IsbL-0250_RLatLon0.09_PT042H.grib2 2026-04-30 08:51 562K
20260430T06Z_MSC_RDPS_SpecificHumidity_IsbL-0275_RLatLon0.09_PT042H.grib2 2026-04-30 08:51 474K
20260430T06Z_MSC_RDPS_SpecificHumidity_IsbL-0300_RLatLon0.09_PT042H.grib2 2026-04-30 08:51 568K
20260430T06Z_MSC_RDPS_SpecificHumidity_IsbL-0350_RLatLon0.09_PT042H.grib2 2026-04-30 08:51 561K
20260430T06Z_MSC_RDPS_SpecificHumidity_IsbL-0400_RLatLon0.09_PT042H.grib2 2026-04-30 08:51 519K
20260430T06Z_MSC_RDPS_SpecificHumidity_IsbL-0450_RLatLon0.09_PT042H.grib2 2026-04-30 08:51 576K
20260430T06Z_MSC_RDPS_SpecificHumidity_IsbL-0500_RLatLon0.09_PT042H.grib2 2026-04-30 08:51 514K
20260430T06Z_MSC_RDPS_SpecificHumidity_IsbL-0550_RLatLon0.09_PT042H.grib2 2026-04-30 08:51 589K
20260430T06Z_MSC_RDPS_SpecificHumidity_IsbL-0600_RLatLon0.09_PT042H.grib2 2026-04-30 08:51 645K
20260430T06Z_MSC_RDPS_SpecificHumidity_IsbL-0650_RLatLon0.09_PT042H.grib2 2026-04-30 08:51 560K
20260430T06Z_MSC_RDPS_SpecificHumidity_IsbL-0700_RLatLon0.09_PT042H.grib2 2026-04-30 08:51 601K
20260430T06Z_MSC_RDPS_SpecificHumidity_IsbL-0750_RLatLon0.09_PT042H.grib2 2026-04-30 08:51 658K
20260430T06Z_MSC_RDPS_SpecificHumidity_IsbL-0800_RLatLon0.09_PT042H.grib2 2026-04-30 08:51 739K
20260430T06Z_MSC_RDPS_SpecificHumidity_IsbL-0850_RLatLon0.09_PT042H.grib2 2026-04-30 08:51 809K
20260430T06Z_MSC_RDPS_SpecificHumidity_IsbL-0875_RLatLon0.09_PT042H.grib2 2026-04-30 08:51 834K
20260430T06Z_MSC_RDPS_SpecificHumidity_IsbL-0900_RLatLon0.09_PT042H.grib2 2026-04-30 08:51 706K
20260430T06Z_MSC_RDPS_SpecificHumidity_IsbL-0925_RLatLon0.09_PT042H.grib2 2026-04-30 08:51 707K
20260430T06Z_MSC_RDPS_SpecificHumidity_IsbL-0950_RLatLon0.09_PT042H.grib2 2026-04-30 08:51 707K
20260430T06Z_MSC_RDPS_SpecificHumidity_IsbL-0970_RLatLon0.09_PT042H.grib2 2026-04-30 08:51 695K
20260430T06Z_MSC_RDPS_SpecificHumidity_IsbL-0985_RLatLon0.09_PT042H.grib2 2026-04-30 08:51 686K
20260430T06Z_MSC_RDPS_SpecificHumidity_IsbL-1000_RLatLon0.09_PT042H.grib2 2026-04-30 08:51 678K
20260430T06Z_MSC_RDPS_SpecificHumidity_IsbL-1015_RLatLon0.09_PT042H.grib2 2026-04-30 08:51 665K
20260430T06Z_MSC_RDPS_SpecificHumidity_Sfc_RLatLon0.09_PT042H.grib2 2026-04-30 08:51 333K
20260430T06Z_MSC_RDPS_StormRelativeHelicity_EtaL-10000_RLatLon0.09_PT042H.grib2 2026-04-30 08:51 1.1M
20260430T06Z_MSC_RDPS_StormSeverityIndex_EtaL-10000_RLatLon0.09_PT042H.grib2 2026-04-30 08:51 1.1M
20260430T06Z_MSC_RDPS_Thickness_IsbL-0850to0700_RLatLon0.09_PT042H.grib2 2026-04-30 08:51 175K
20260430T06Z_MSC_RDPS_Thickness_IsbL-1000to0500_RLatLon0.09_PT042H.grib2 2026-04-30 08:51 197K
20260430T06Z_MSC_RDPS_Thickness_IsbL-1000to0850_RLatLon0.09_PT042H.grib2 2026-04-30 08:51 183K
20260430T06Z_MSC_RDPS_TotalCloudCover_Sfc_RLatLon0.09_PT042H.grib2 2026-04-30 08:51 644K
20260430T06Z_MSC_RDPS_TotalTotalsIndex_Sfc_RLatLon0.09_PT042H.grib2 2026-04-30 08:51 2.4M
20260430T06Z_MSC_RDPS_UVIndex-ClearSky_Sfc_RLatLon0.09_PT042H.grib2 2026-04-30 08:51 187K
20260430T06Z_MSC_RDPS_UVIndex_Sfc_RLatLon0.09_PT042H.grib2 2026-04-30 08:51 389K
20260430T06Z_MSC_RDPS_UpwardLongwaveRadiationFlux_NTAtm_RLatLon0.09_PT042H.grib2 2026-04-30 08:51 487K
20260430T06Z_MSC_RDPS_UpwardShortwaveRadiationFlux_NTAtm_RLatLon0.09_PT042H.grib2 2026-04-30 08:51 333K
20260430T06Z_MSC_RDPS_VerticalVelocity_IsbL-0250_RLatLon0.09_PT042H.grib2 2026-04-30 08:51 540K
20260430T06Z_MSC_RDPS_VerticalVelocity_IsbL-0500_RLatLon0.09_PT042H.grib2 2026-04-30 08:51 535K
20260430T06Z_MSC_RDPS_VerticalVelocity_IsbL-0700_RLatLon0.09_PT042H.grib2 2026-04-30 08:51 621K
20260430T06Z_MSC_RDPS_VerticalVelocity_IsbL-0850_RLatLon0.09_PT042H.grib2 2026-04-30 08:51 710K
20260430T06Z_MSC_RDPS_VerticalWindShear_EtaL-6500_RLatLon0.09_PT042H.grib2 2026-04-30 08:51 1.2M
20260430T06Z_MSC_RDPS_WindChill_Sfc_RLatLon0.09_PT042H.grib2 2026-04-30 08:51 1.1M
20260430T06Z_MSC_RDPS_WindDir_AGL-10m_RLatLon0.09_PT042H.grib2 2026-04-30 08:51 949K
20260430T06Z_MSC_RDPS_WindDir_AGL-120m_RLatLon0.09_PT042H.grib2 2026-04-30 08:51 597K
20260430T06Z_MSC_RDPS_WindDir_AGL-40m_RLatLon0.09_PT042H.grib2 2026-04-30 08:51 621K
20260430T06Z_MSC_RDPS_WindDir_AGL-80m_RLatLon0.09_PT042H.grib2 2026-04-30 08:51 606K
20260430T06Z_MSC_RDPS_WindDir_IsbL-0001_RLatLon0.09_PT042H.grib2 2026-04-30 08:51 306K
20260430T06Z_MSC_RDPS_WindDir_IsbL-0005_RLatLon0.09_PT042H.grib2 2026-04-30 08:51 358K
20260430T06Z_MSC_RDPS_WindDir_IsbL-0010_RLatLon0.09_PT042H.grib2 2026-04-30 08:51 381K
20260430T06Z_MSC_RDPS_WindDir_IsbL-0020_RLatLon0.09_PT042H.grib2 2026-04-30 08:51 433K
20260430T06Z_MSC_RDPS_WindDir_IsbL-0030_RLatLon0.09_PT042H.grib2 2026-04-30 08:51 412K
20260430T06Z_MSC_RDPS_WindDir_IsbL-0050_RLatLon0.09_PT042H.grib2 2026-04-30 08:51 414K
20260430T06Z_MSC_RDPS_WindDir_IsbL-0100_RLatLon0.09_PT042H.grib2 2026-04-30 08:51 409K
20260430T06Z_MSC_RDPS_WindDir_IsbL-0150_RLatLon0.09_PT042H.grib2 2026-04-30 08:51 412K
20260430T06Z_MSC_RDPS_WindDir_IsbL-0175_RLatLon0.09_PT042H.grib2 2026-04-30 08:51 436K
20260430T06Z_MSC_RDPS_WindDir_IsbL-0200_RLatLon0.09_PT042H.grib2 2026-04-30 08:51 447K
20260430T06Z_MSC_RDPS_WindDir_IsbL-0225_RLatLon0.09_PT042H.grib2 2026-04-30 08:51 451K
20260430T06Z_MSC_RDPS_WindDir_IsbL-0250_RLatLon0.09_PT042H.grib2 2026-04-30 08:51 450K
20260430T06Z_MSC_RDPS_WindDir_IsbL-0275_RLatLon0.09_PT042H.grib2 2026-04-30 08:51 471K
20260430T06Z_MSC_RDPS_WindDir_IsbL-0300_RLatLon0.09_PT042H.grib2 2026-04-30 08:51 468K
20260430T06Z_MSC_RDPS_WindDir_IsbL-0350_RLatLon0.09_PT042H.grib2 2026-04-30 08:51 489K
20260430T06Z_MSC_RDPS_WindDir_IsbL-0400_RLatLon0.09_PT042H.grib2 2026-04-30 08:51 509K
20260430T06Z_MSC_RDPS_WindDir_IsbL-0450_RLatLon0.09_PT042H.grib2 2026-04-30 08:51 523K
20260430T06Z_MSC_RDPS_WindDir_IsbL-0500_RLatLon0.09_PT042H.grib2 2026-04-30 08:51 542K
20260430T06Z_MSC_RDPS_WindDir_IsbL-0550_RLatLon0.09_PT042H.grib2 2026-04-30 08:51 559K
20260430T06Z_MSC_RDPS_WindDir_IsbL-0600_RLatLon0.09_PT042H.grib2 2026-04-30 08:51 586K
20260430T06Z_MSC_RDPS_WindDir_IsbL-0650_RLatLon0.09_PT042H.grib2 2026-04-30 08:51 629K
20260430T06Z_MSC_RDPS_WindDir_IsbL-0700_RLatLon0.09_PT042H.grib2 2026-04-30 08:51 675K
20260430T06Z_MSC_RDPS_WindDir_IsbL-0750_RLatLon0.09_PT042H.grib2 2026-04-30 08:51 725K
20260430T06Z_MSC_RDPS_WindDir_IsbL-0800_RLatLon0.09_PT042H.grib2 2026-04-30 08:51 787K
20260430T06Z_MSC_RDPS_WindDir_IsbL-0850_RLatLon0.09_PT042H.grib2 2026-04-30 08:51 855K
20260430T06Z_MSC_RDPS_WindDir_IsbL-0875_RLatLon0.09_PT042H.grib2 2026-04-30 08:51 879K
20260430T06Z_MSC_RDPS_WindDir_IsbL-0900_RLatLon0.09_PT042H.grib2 2026-04-30 08:51 894K
20260430T06Z_MSC_RDPS_WindDir_IsbL-0925_RLatLon0.09_PT042H.grib2 2026-04-30 08:51 900K
20260430T06Z_MSC_RDPS_WindDir_IsbL-0950_RLatLon0.09_PT042H.grib2 2026-04-30 08:51 899K
20260430T06Z_MSC_RDPS_WindDir_IsbL-0970_RLatLon0.09_PT042H.grib2 2026-04-30 08:51 906K
20260430T06Z_MSC_RDPS_WindDir_IsbL-0985_RLatLon0.09_PT042H.grib2 2026-04-30 08:51 914K
20260430T06Z_MSC_RDPS_WindDir_IsbL-1000_RLatLon0.09_PT042H.grib2 2026-04-30 08:51 926K
20260430T06Z_MSC_RDPS_WindDir_IsbL-1015_RLatLon0.09_PT042H.grib2 2026-04-30 08:51 940K
20260430T06Z_MSC_RDPS_WindGust-Max_AGL-10m_RLatLon0.09_PT042H.grib2 2026-04-30 08:51 1.0M
20260430T06Z_MSC_RDPS_WindGust-Min_AGL-10m_RLatLon0.09_PT042H.grib2 2026-04-30 08:51 967K
20260430T06Z_MSC_RDPS_WindGust_AGL-10m_RLatLon0.09_PT042H.grib2 2026-04-30 08:51 1.0M
20260430T06Z_MSC_RDPS_WindSpeed_AGL-10m_RLatLon0.09_PT042H.grib2 2026-04-30 08:51 831K
20260430T06Z_MSC_RDPS_WindSpeed_AGL-120m_RLatLon0.09_PT042H.grib2 2026-04-30 08:51 529K
20260430T06Z_MSC_RDPS_WindSpeed_AGL-40m_RLatLon0.09_PT042H.grib2 2026-04-30 08:51 533K
20260430T06Z_MSC_RDPS_WindSpeed_AGL-80m_RLatLon0.09_PT042H.grib2 2026-04-30 08:51 530K
20260430T06Z_MSC_RDPS_WindSpeed_IsbL-0001_RLatLon0.09_PT042H.grib2 2026-04-30 08:51 328K
20260430T06Z_MSC_RDPS_WindSpeed_IsbL-0005_RLatLon0.09_PT042H.grib2 2026-04-30 08:51 343K
20260430T06Z_MSC_RDPS_WindSpeed_IsbL-0010_RLatLon0.09_PT042H.grib2 2026-04-30 08:51 395K
20260430T06Z_MSC_RDPS_WindSpeed_IsbL-0020_RLatLon0.09_PT042H.grib2 2026-04-30 08:51 321K
20260430T06Z_MSC_RDPS_WindSpeed_IsbL-0030_RLatLon0.09_PT042H.grib2 2026-04-30 08:51 316K
20260430T06Z_MSC_RDPS_WindSpeed_IsbL-0050_RLatLon0.09_PT042H.grib2 2026-04-30 08:51 345K
20260430T06Z_MSC_RDPS_WindSpeed_IsbL-0100_RLatLon0.09_PT042H.grib2 2026-04-30 08:51 472K
20260430T06Z_MSC_RDPS_WindSpeed_IsbL-0150_RLatLon0.09_PT042H.grib2 2026-04-30 08:51 379K
20260430T06Z_MSC_RDPS_WindSpeed_IsbL-0175_RLatLon0.09_PT042H.grib2 2026-04-30 08:51 405K
20260430T06Z_MSC_RDPS_WindSpeed_IsbL-0200_RLatLon0.09_PT042H.grib2 2026-04-30 08:51 441K
20260430T06Z_MSC_RDPS_WindSpeed_IsbL-0225_RLatLon0.09_PT042H.grib2 2026-04-30 08:51 446K
20260430T06Z_MSC_RDPS_WindSpeed_IsbL-0250_RLatLon0.09_PT042H.grib2 2026-04-30 08:51 446K
20260430T06Z_MSC_RDPS_WindSpeed_IsbL-0275_RLatLon0.09_PT042H.grib2 2026-04-30 08:51 462K
20260430T06Z_MSC_RDPS_WindSpeed_IsbL-0300_RLatLon0.09_PT042H.grib2 2026-04-30 08:51 459K
20260430T06Z_MSC_RDPS_WindSpeed_IsbL-0350_RLatLon0.09_PT042H.grib2 2026-04-30 08:51 470K
20260430T06Z_MSC_RDPS_WindSpeed_IsbL-0400_RLatLon0.09_PT042H.grib2 2026-04-30 08:51 473K
20260430T06Z_MSC_RDPS_WindSpeed_IsbL-0450_RLatLon0.09_PT042H.grib2 2026-04-30 08:51 457K
20260430T06Z_MSC_RDPS_WindSpeed_IsbL-0500_RLatLon0.09_PT042H.grib2 2026-04-30 08:51 460K
20260430T06Z_MSC_RDPS_WindSpeed_IsbL-0550_RLatLon0.09_PT042H.grib2 2026-04-30 08:51 581K
20260430T06Z_MSC_RDPS_WindSpeed_IsbL-0600_RLatLon0.09_PT042H.grib2 2026-04-30 08:51 591K
20260430T06Z_MSC_RDPS_WindSpeed_IsbL-0650_RLatLon0.09_PT042H.grib2 2026-04-30 08:51 612K
20260430T06Z_MSC_RDPS_WindSpeed_IsbL-0700_RLatLon0.09_PT042H.grib2 2026-04-30 08:51 679K
20260430T06Z_MSC_RDPS_WindSpeed_IsbL-0750_RLatLon0.09_PT042H.grib2 2026-04-30 08:51 708K
20260430T06Z_MSC_RDPS_WindSpeed_IsbL-0800_RLatLon0.09_PT042H.grib2 2026-04-30 08:51 748K
20260430T06Z_MSC_RDPS_WindSpeed_IsbL-0850_RLatLon0.09_PT042H.grib2 2026-04-30 08:51 802K
20260430T06Z_MSC_RDPS_WindSpeed_IsbL-0875_RLatLon0.09_PT042H.grib2 2026-04-30 08:51 823K
20260430T06Z_MSC_RDPS_WindSpeed_IsbL-0900_RLatLon0.09_PT042H.grib2 2026-04-30 08:51 840K
20260430T06Z_MSC_RDPS_WindSpeed_IsbL-0925_RLatLon0.09_PT042H.grib2 2026-04-30 08:51 848K
20260430T06Z_MSC_RDPS_WindSpeed_IsbL-0950_RLatLon0.09_PT042H.grib2 2026-04-30 08:51 850K
20260430T06Z_MSC_RDPS_WindSpeed_IsbL-0970_RLatLon0.09_PT042H.grib2 2026-04-30 08:51 853K
20260430T06Z_MSC_RDPS_WindSpeed_IsbL-0985_RLatLon0.09_PT042H.grib2 2026-04-30 08:51 850K
20260430T06Z_MSC_RDPS_WindSpeed_IsbL-1000_RLatLon0.09_PT042H.grib2 2026-04-30 08:51 844K
20260430T06Z_MSC_RDPS_WindSpeed_IsbL-1015_RLatLon0.09_PT042H.grib2 2026-04-30 08:51 833K
20260430T06Z_MSC_RDPS_WindU_AGL-10m_RLatLon0.09_PT042H.grib2 2026-04-30 08:51 428K
20260430T06Z_MSC_RDPS_WindU_AGL-120m_RLatLon0.09_PT042H.grib2 2026-04-30 08:51 528K
20260430T06Z_MSC_RDPS_WindU_AGL-40m_RLatLon0.09_PT042H.grib2 2026-04-30 08:51 531K
20260430T06Z_MSC_RDPS_WindU_AGL-80m_RLatLon0.09_PT042H.grib2 2026-04-30 08:51 529K
20260430T06Z_MSC_RDPS_WindU_IsbL-0001_RLatLon0.09_PT042H.grib2 2026-04-30 08:51 240K
20260430T06Z_MSC_RDPS_WindU_IsbL-0005_RLatLon0.09_PT042H.grib2 2026-04-30 08:51 282K
20260430T06Z_MSC_RDPS_WindU_IsbL-0010_RLatLon0.09_PT042H.grib2 2026-04-30 08:51 293K
20260430T06Z_MSC_RDPS_WindU_IsbL-0020_RLatLon0.09_PT042H.grib2 2026-04-30 08:51 311K
20260430T06Z_MSC_RDPS_WindU_IsbL-0030_RLatLon0.09_PT042H.grib2 2026-04-30 08:51 312K
20260430T06Z_MSC_RDPS_WindU_IsbL-0050_RLatLon0.09_PT042H.grib2 2026-04-30 08:51 339K
20260430T06Z_MSC_RDPS_WindU_IsbL-0100_RLatLon0.09_PT042H.grib2 2026-04-30 08:51 427K
20260430T06Z_MSC_RDPS_WindU_IsbL-0150_RLatLon0.09_PT042H.grib2 2026-04-30 08:51 394K
20260430T06Z_MSC_RDPS_WindU_IsbL-0175_RLatLon0.09_PT042H.grib2 2026-04-30 08:51 419K
20260430T06Z_MSC_RDPS_WindU_IsbL-0200_RLatLon0.09_PT042H.grib2 2026-04-30 08:51 336K
20260430T06Z_MSC_RDPS_WindU_IsbL-0225_RLatLon0.09_PT042H.grib2 2026-04-30 08:51 339K
20260430T06Z_MSC_RDPS_WindU_IsbL-0250_RLatLon0.09_PT042H.grib2 2026-04-30 08:51 339K
20260430T06Z_MSC_RDPS_WindU_IsbL-0275_RLatLon0.09_PT042H.grib2 2026-04-30 08:51 352K
20260430T06Z_MSC_RDPS_WindU_IsbL-0300_RLatLon0.09_PT042H.grib2 2026-04-30 08:51 348K
20260430T06Z_MSC_RDPS_WindU_IsbL-0350_RLatLon0.09_PT042H.grib2 2026-04-30 08:51 356K
20260430T06Z_MSC_RDPS_WindU_IsbL-0400_RLatLon0.09_PT042H.grib2 2026-04-30 08:51 360K
20260430T06Z_MSC_RDPS_WindU_IsbL-0450_RLatLon0.09_PT042H.grib2 2026-04-30 08:51 463K
20260430T06Z_MSC_RDPS_WindU_IsbL-0500_RLatLon0.09_PT042H.grib2 2026-04-30 08:51 467K
20260430T06Z_MSC_RDPS_WindU_IsbL-0550_RLatLon0.09_PT042H.grib2 2026-04-30 08:51 472K
20260430T06Z_MSC_RDPS_WindU_IsbL-0600_RLatLon0.09_PT042H.grib2 2026-04-30 08:51 464K
20260430T06Z_MSC_RDPS_WindU_IsbL-0650_RLatLon0.09_PT042H.grib2 2026-04-30 08:51 483K
20260430T06Z_MSC_RDPS_WindU_IsbL-0700_RLatLon0.09_PT042H.grib2 2026-04-30 08:51 505K
20260430T06Z_MSC_RDPS_WindU_IsbL-0750_RLatLon0.09_PT042H.grib2 2026-04-30 08:51 531K
20260430T06Z_MSC_RDPS_WindU_IsbL-0800_RLatLon0.09_PT042H.grib2 2026-04-30 08:51 695K
20260430T06Z_MSC_RDPS_WindU_IsbL-0850_RLatLon0.09_PT042H.grib2 2026-04-30 08:51 611K
20260430T06Z_MSC_RDPS_WindU_IsbL-0875_RLatLon0.09_PT042H.grib2 2026-04-30 08:51 629K
20260430T06Z_MSC_RDPS_WindU_IsbL-0900_RLatLon0.09_PT042H.grib2 2026-04-30 08:51 643K
20260430T06Z_MSC_RDPS_WindU_IsbL-0925_RLatLon0.09_PT042H.grib2 2026-04-30 08:51 651K
20260430T06Z_MSC_RDPS_WindU_IsbL-0950_RLatLon0.09_PT042H.grib2 2026-04-30 08:51 650K
20260430T06Z_MSC_RDPS_WindU_IsbL-0970_RLatLon0.09_PT042H.grib2 2026-04-30 08:51 650K
20260430T06Z_MSC_RDPS_WindU_IsbL-0985_RLatLon0.09_PT042H.grib2 2026-04-30 08:51 646K
20260430T06Z_MSC_RDPS_WindU_IsbL-1000_RLatLon0.09_PT042H.grib2 2026-04-30 08:51 779K
20260430T06Z_MSC_RDPS_WindU_IsbL-1015_RLatLon0.09_PT042H.grib2 2026-04-30 08:51 772K
20260430T06Z_MSC_RDPS_WindV_AGL-10m_RLatLon0.09_PT042H.grib2 2026-04-30 08:51 426K
20260430T06Z_MSC_RDPS_WindV_AGL-120m_RLatLon0.09_PT042H.grib2 2026-04-30 08:51 525K
20260430T06Z_MSC_RDPS_WindV_AGL-40m_RLatLon0.09_PT042H.grib2 2026-04-30 08:51 528K
20260430T06Z_MSC_RDPS_WindV_AGL-80m_RLatLon0.09_PT042H.grib2 2026-04-30 08:51 525K
20260430T06Z_MSC_RDPS_WindV_IsbL-0001_RLatLon0.09_PT042H.grib2 2026-04-30 08:51 240K
20260430T06Z_MSC_RDPS_WindV_IsbL-0005_RLatLon0.09_PT042H.grib2 2026-04-30 08:51 284K
20260430T06Z_MSC_RDPS_WindV_IsbL-0010_RLatLon0.09_PT042H.grib2 2026-04-30 08:51 297K
20260430T06Z_MSC_RDPS_WindV_IsbL-0020_RLatLon0.09_PT042H.grib2 2026-04-30 08:51 315K
20260430T06Z_MSC_RDPS_WindV_IsbL-0030_RLatLon0.09_PT042H.grib2 2026-04-30 08:51 312K
20260430T06Z_MSC_RDPS_WindV_IsbL-0050_RLatLon0.09_PT042H.grib2 2026-04-30 08:51 338K
20260430T06Z_MSC_RDPS_WindV_IsbL-0100_RLatLon0.09_PT042H.grib2 2026-04-30 08:51 425K
20260430T06Z_MSC_RDPS_WindV_IsbL-0150_RLatLon0.09_PT042H.grib2 2026-04-30 08:51 394K
20260430T06Z_MSC_RDPS_WindV_IsbL-0175_RLatLon0.09_PT042H.grib2 2026-04-30 08:51 418K
20260430T06Z_MSC_RDPS_WindV_IsbL-0200_RLatLon0.09_PT042H.grib2 2026-04-30 08:51 335K
20260430T06Z_MSC_RDPS_WindV_IsbL-0225_RLatLon0.09_PT042H.grib2 2026-04-30 08:51 338K
20260430T06Z_MSC_RDPS_WindV_IsbL-0250_RLatLon0.09_PT042H.grib2 2026-04-30 08:51 336K
20260430T06Z_MSC_RDPS_WindV_IsbL-0275_RLatLon0.09_PT042H.grib2 2026-04-30 08:51 348K
20260430T06Z_MSC_RDPS_WindV_IsbL-0300_RLatLon0.09_PT042H.grib2 2026-04-30 08:51 345K
20260430T06Z_MSC_RDPS_WindV_IsbL-0350_RLatLon0.09_PT042H.grib2 2026-04-30 08:51 353K
20260430T06Z_MSC_RDPS_WindV_IsbL-0400_RLatLon0.09_PT042H.grib2 2026-04-30 08:51 457K
20260430T06Z_MSC_RDPS_WindV_IsbL-0450_RLatLon0.09_PT042H.grib2 2026-04-30 08:51 460K
20260430T06Z_MSC_RDPS_WindV_IsbL-0500_RLatLon0.09_PT042H.grib2 2026-04-30 08:51 465K
20260430T06Z_MSC_RDPS_WindV_IsbL-0550_RLatLon0.09_PT042H.grib2 2026-04-30 08:51 467K
20260430T06Z_MSC_RDPS_WindV_IsbL-0600_RLatLon0.09_PT042H.grib2 2026-04-30 08:51 460K
20260430T06Z_MSC_RDPS_WindV_IsbL-0650_RLatLon0.09_PT042H.grib2 2026-04-30 08:51 479K
20260430T06Z_MSC_RDPS_WindV_IsbL-0700_RLatLon0.09_PT042H.grib2 2026-04-30 08:51 500K
20260430T06Z_MSC_RDPS_WindV_IsbL-0750_RLatLon0.09_PT042H.grib2 2026-04-30 08:51 525K
20260430T06Z_MSC_RDPS_WindV_IsbL-0800_RLatLon0.09_PT042H.grib2 2026-04-30 08:51 560K
20260430T06Z_MSC_RDPS_WindV_IsbL-0850_RLatLon0.09_PT042H.grib2 2026-04-30 08:51 607K
20260430T06Z_MSC_RDPS_WindV_IsbL-0875_RLatLon0.09_PT042H.grib2 2026-04-30 08:51 627K
20260430T06Z_MSC_RDPS_WindV_IsbL-0900_RLatLon0.09_PT042H.grib2 2026-04-30 08:52 640K
20260430T06Z_MSC_RDPS_WindV_IsbL-0925_RLatLon0.09_PT042H.grib2 2026-04-30 08:52 648K
20260430T06Z_MSC_RDPS_WindV_IsbL-0950_RLatLon0.09_PT042H.grib2 2026-04-30 08:52 646K
20260430T06Z_MSC_RDPS_WindV_IsbL-0970_RLatLon0.09_PT042H.grib2 2026-04-30 08:52 786K
20260430T06Z_MSC_RDPS_WindV_IsbL-0985_RLatLon0.09_PT042H.grib2 2026-04-30 08:52 783K
20260430T06Z_MSC_RDPS_WindV_IsbL-1000_RLatLon0.09_PT042H.grib2 2026-04-30 08:52 776K
20260430T06Z_MSC_RDPS_WindV_IsbL-1015_RLatLon0.09_PT042H.grib2 2026-04-30 08:52 815K